Thermal, CA

2:02 PM PST on February 20, 2018 (GMT -0800)
Desert Resorts Regional

Weather History for KTRM - March, 2013

Change the Weather History Date:

Sunday, March 3, 2013

  Actual Average Record
Temperature  
Mean Temperature 69 °F 62 °F  
Max Temperature 89 °F 78 °F 93 °F (1959)
Min Temperature 49 °F 45 °F 26 °F (1971)
Degree Days  
Heating Degree Days 0 5  
Month to date heating degree days 2 15  
Since 1 July heating degree days 1090 1080  
Cooling Degree Days 4 1  
Month to date cooling degree days 4 3  
Year to date cooling degree days 4 15  
Growing Degree Days 20 (Base 50)    
Moisture  
Dew Point 33 °F    
Average Humidity 31    
Maximum Humidity 54    
Minimum Humidity 8    
Precipitation  
Precipitation 0.00 in 0.02 in 0.24 in (1983)
Month to date precipitation 0.00 0.06  
Year to date precipitation 0.37 1.39  
Since 1 July precipitation 2.55  
Snow  
Snow 0.00 in - - ()
Month to date snowfall 0.0  
Year to date snowfall 0.0  
Snow Depth 0.00 in    
Sea Level Pressure  
Sea Level Pressure 29.90 in    
Wind  
Wind Speed 5 mph (WNW)    
Max Wind Speed 23 mph    
Max Gust Speed 31 mph    
Visibility 10 miles    
Events      
T = Trace of Precipitation, MM = Missing Value Source: NWS Daily Summary

Daily Weather History Graph

Daily Weather History Graph

Search for Another Location

Airport or City:

Trip Planner

Search our weather history database for the weather conditions in past years. The results will help you decide how hot, cold, wet, or windy it might be!

Date:

Astronomy

Mar. 03, 2013 Rise Set
Actual Time 6:10 AM PST 5:43 PM PST
Civil Twilight 5:45 AM PST 6:08 PM PST
Nautical Twilight 5:16 AM PST 6:37 PM PST
Astronomical Twilight 4:47 AM PST 7:05 PM PST
Moon No Moon Rise 9:48 AM PST (3/3)
Length of Visible Light 12h 22m
Length of Day
11h 33m
Waning Gibbous, 62% of the Moon is Illuminated
Mar 3
Waning Gibbous
Mar 4
Last Quarter
Mar 11
New
Mar 19
First Quarter
Mar 27
Full

Hourly Weather History & Observations

Time (PST) Temp. Dew Point Humidity Pressure Visibility Wind Dir Wind Speed Gust Speed Precip Events Conditions
12:52 AM 53.1 °F 35.1 °F 50% 30.00 in 10.0 mi Calm Calm - N/A   Clear
1:52 AM 55.0 °F 32.0 °F 42% 29.99 in 10.0 mi North 4.6 mph - N/A   Clear
2:52 AM 52.0 °F 36.0 °F 54% 29.98 in 10.0 mi West 3.5 mph - N/A   Clear
4:52 AM 54.0 °F 36.0 °F 51% 29.96 in 10.0 mi NE 5.8 mph - N/A   Clear
5:52 AM 54.0 °F 36.0 °F 51% 29.94 in 10.0 mi Calm Calm - N/A   Clear
6:52 AM 55.9 °F 37.0 °F 49% 29.96 in 10.0 mi ESE 5.8 mph - N/A   Clear
7:52 AM 57.9 °F 37.9 °F 47% 29.99 in 10.0 mi Calm Calm - N/A   Clear
8:52 AM 63.0 °F 44.1 °F 50% 29.98 in 10.0 mi Calm Calm - N/A   Clear
9:52 AM 69.1 °F 48.9 °F 49% 29.99 in 10.0 mi SE 3.5 mph - N/A   Clear
10:52 AM 73.0 °F 43.0 °F 34% 29.97 in 10.0 mi SSE 11.5 mph - N/A   Clear
11:52 AM 78.1 °F 35.1 °F 21% 29.94 in 10.0 mi SE 8.1 mph 16.1 mph N/A   Clear
12:52 PM 82.0 °F 34.0 °F 18% 29.89 in 10.0 mi SE 9.2 mph - N/A   Partly Cloudy
1:52 PM 84.0 °F 34.0 °F 17% 29.85 in 10.0 mi SE 11.5 mph - N/A   Scattered Clouds
2:52 PM 87.1 °F 19.0 °F 8% 29.83 in 7.0 mi SSW 19.6 mph 31.1 mph N/A   Overcast
3:09 PM 87.8 °F 17.6 °F 8% 29.82 in 10.0 mi WSW 13.8 mph 24.2 mph N/A   Mostly Cloudy
3:21 PM 87.8 °F 17.6 °F 8% 29.82 in 9.0 mi West 17.3 mph 27.6 mph N/A   Mostly Cloudy
3:52 PM 86.0 °F 18.0 °F 8% 29.81 in 10.0 mi West 16.1 mph 21.9 mph N/A   Partly Cloudy
4:52 PM 82.9 °F 30.0 °F 15% 29.81 in 10.0 mi West 13.8 mph 21.9 mph N/A   Clear
5:52 PM 78.1 °F 28.9 °F 17% 29.82 in 8.0 mi West 17.3 mph 32.2 mph N/A   Clear
6:52 PM 75.0 °F 32.0 °F 21% 29.83 in 10.0 mi NW 12.7 mph 20.7 mph N/A   Clear
7:52 PM 73.9 °F 30.9 °F 21% 29.83 in 10.0 mi NNW 9.2 mph - N/A   Scattered Clouds
8:52 PM 69.1 °F 35.1 °F 29% 29.84 in 10.0 mi NW 5.8 mph - N/A   Overcast
9:52 PM 66.9 °F 35.1 °F 31% 29.86 in 10.0 mi NNW 8.1 mph - N/A   Clear
10:52 PM 64.9 °F 36.0 °F 34% 29.87 in 10.0 mi NNW 3.5 mph - N/A   Clear